Date,TemperatureHighF,TemperatureAvgF,TemperatureLowF,DewpointHighF,DewpointAvgF,DewpointLowF,HumidityHigh,HumidityAvg,HumidityLow,PressureMaxIn,PressureMinIn,WindSpeedMaxMPH,WindSpeedAvgMPH,GustSpeedMaxMPH,PrecipitationSumIn
2013-1-1,26.1,20.2,8.4,17.8,7.8,-3.8,79,59,37,30.47,30.34,14,8,14,0.00
2013-1-2,23.5,13.3,2.7,11.2,3.1,-5.7,69,63,51,30.49,30.39,17,7,17,0.00
2013-1-3,32.0,24.4,17.1,26.2,16.6,7.9,82,72,59,30.55,30.38,23,10,23,0.00
2013-1-4,29.7,20.1,9.9,22.6,13.0,1.2,78,73,67,30.54,30.46,30,14,30,0.00
2013-1-5,34.2,27.1,16.7,31.2,22.0,10.2,92,81,72,30.52,30.25,27,10,27,0.00
2013-1-6,34.2,26.9,14.4,30.5,20.4,8.8,88,76,68,30.61,30.21,25,11,25,0.00
2013-1-7,36.3,24.3,12.2,26.6,18.2,6.7,85,77,64,30.62,30.40,23,10,23,0.00
2013-1-8,42.3,31.9,23.9,34.4,26.3,19.5,86,80,72,30.45,30.33,19,9,19,0.00
2013-1-9,50.5,38.8,27.5,35.8,27.1,12.9,86,66,28,30.76,30.33,24,11,24,0.00
2013-1-10,42.3,34.0,25.7,38.2,28.6,18.9,99,81,55,30.76,30.24,18,8,18,0.17
2013-1-11,53.6,50.0,42.8,52.2,48.7,42.3,99,95,88,30.74,29.97,28,14,28,0.12
2013-1-12,53.4,44.6,32.0,49.7,40.5,28.6,94,86,73,30.23,30.04,27,12,27,0.07
2013-1-13,32.0,24.5,14.4,29.9,20.2,6.0,95,84,67,30.52,30.12,0,0,0,0.00
2013-1-14,24.1,17.4,12.7,13.7,9.1,4.6,73,69,62,30.71,30.51,0,0,0,0.00
2013-1-15,30.0,21.5,12.9,19.7,13.9,7.1,81,72,59,30.67,30.37,0,0,0,0.00
2013-1-16,35.8,27.3,16.0,26.9,20.1,10.1,85,74,59,30.37,30.15,33,9,33,0.26
2013-1-17,34.0,27.7,16.9,28.5,15.9,7.4,87,62,43,31.11,30.31,24,10,24,0.00
2013-1-18,37.4,26.9,0.0,27.6,19.3,8.5,80,72,59,30.69,29.83,36,15,36,0.00
2013-1-19,50.2,40.2,31.1,37.6,31.4,13.1,84,71,45,29.84,29.63,38,19,38,0.02
2013-1-20,30.9,19.7,14.9,15.3,3.1,-0.5,56,48,41,30.13,29.80,30,12,32,0.00
2013-1-21,16.2,11.0,4.8,4.3,-7.3,-18.9,65,44,25,30.12,29.98,28,14,28,0.00
2013-1-22,14.4,8.1,0.5,-4.9,-8.3,-13.0,63,47,29,30.23,30.11,18,9,18,0.00
2013-1-23,23.2,17.6,11.8,11.2,1.2,-5.0,73,48,43,30.17,29.94,29,10,29,0.00
2013-1-24,24.8,16.2,6.8,5.5,-2.6,-9.4,60,44,24,30.44,30.13,22,10,23,0.00
2013-1-25,32.0,24.4,18.5,19.7,12.4,3.6,75,60,48,30.20,29.82,27,10,27,0.00
2013-1-26,31.1,22.8,14.0,15.3,8.2,3.1,67,54,34,30.23,29.99,14,6,14,0.00
2013-1-27,38.1,29.9,23.4,37.3,22.5,13.0,97,74,58,30.22,29.80,24,8,24,0.06
2013-1-28,49.5,46.0,37.6,49.2,45.6,36.8,99,99,97,29.80,29.70,36,12,36,0.06
2013-1-29,59.2,57.6,45.5,57.5,56.2,44.7,97,95,94,29.78,29.32,30,18,30,0.64
2013-1-30,33.1,29.4,24.8,31.1,25.6,19.4,93,86,78,29.43,29.18,30,6,30,1.29
2013-1-31,24.4,11.9,9.1,19.8,1.5,-3.3,82,62,56,29.91,28.34,27,18,27,0.00
2013-2-1,19.4,15.4,9.1,5.7,3.1,-3.3,63,57,51,30.13,29.91,21,12,27,0.00
2013-2-2,27.1,19.1,8.8,21.2,11.1,-2.2,85,71,59,30.03,29.83,19,9,19,0.00
2013-2-3,24.8,17.9,10.4,16.0,9.3,1.7,80,69,58,29.90,29.80,21,9,21,0.00
2013-2-4,28.8,28.3,23.0,22.9,21.9,15.4,79,77,72,29.91,29.68,14,9,14,0.00
2013-2-5,32.9,31.8,26.1,29.1,28.1,20.2,90,86,78,29.88,29.73,19,10,19,0.00
2013-2-6,36.1,33.9,29.7,28.0,27.4,23.4,81,77,71,30.01,29.88,17,8,17,0.00
2013-2-7,39.4,36.7,31.6,38.1,35.0,27.4,97,94,81,29.97,29.68,22,10,22,0.28
2013-2-8,31.5,28.6,27.3,26.3,23.8,22.5,85,82,80,30.21,30.05,22,8,22,0.01
2013-2-9,37.4,32.7,27.3,29.9,25.6,21.5,82,75,69,30.22,29.96,16,9,16,0.01
2013-2-10,47.1,42.0,32.7,46.0,39.9,26.0,96,92,76,29.96,29.40,35,18,35,0.11
2013-2-11,41.0,32.9,32.0,34.7,24.1,22.7,78,70,65,29.84,29.44,32,21,32,0.12
2013-2-12,32.0,29.2,26.4,23.4,21.9,19.1,76,74,70,29.85,29.81,17,4,26,0.12
2013-2-13,45.5,36.4,23.7,34.0,29.0,20.1,89,75,64,29.75,29.58,17,6,17,0.00
2013-2-14,38.8,37.0,30.9,30.6,28.8,26.8,86,72,70,29.81,29.62,17,9,17,0.00
2013-2-15,32.7,28.9,25.2,27.3,12.0,8.5,84,49,42,30.01,29.83,17,9,17,0.00
2013-2-16,25.0,18.8,12.6,13.0,2.1,-1.8,64,47,39,30.02,29.94,22,11,22,0.00
2013-2-17,32.5,26.0,12.2,15.9,8.0,-1.8,64,47,31,30.06,29.86,14,6,14,0.00
2013-2-18,53.2,39.6,27.0,44.2,30.0,15.4,94,69,58,29.85,29.34,40,19,40,0.26
2013-2-19,32.4,18.9,16.2,29.5,8.6,4.3,89,64,58,29.91,29.43,30,20,30,0.48
2013-2-20,23.0,20.3,18.5,12.5,11.7,7.4,71,69,61,30.17,29.91,16,7,22,0.48
2013-2-21,27.1,26.4,19.6,20.6,16.9,11.4,83,67,63,30.17,29.88,32,13,32,0.00
2013-2-22,32.9,29.2,25.0,27.8,23.1,20.1,83,77,74,29.88,29.72,27,17,32,0.02
2013-2-23,30.2,26.2,20.7,20.5,18.2,14.9,83,72,61,29.82,29.78,20,11,20,0.00
2013-2-24,37.9,26.9,14.4,25.3,18.0,8.2,81,69,54,30.72,29.82,9,4,9,0.00
2013-2-25,43.3,33.7,25.0,30.8,25.2,19.2,83,71,57,30.00,29.80,24,7,24,0.00
2013-2-26,33.3,32.5,32.5,31.5,31.3,27.5,96,95,79,29.78,29.30,20,9,20,0.13
2013-2-27,32.7,31.7,31.5,32.0,29.9,29.4,97,93,90,29.52,29.33,14,10,14,0.15
2013-2-28,33.6,32.5,32.0,30.2,27.7,25.1,93,82,78,29.88,29.52,21,13,21,0.17
2013-3-1,31.1,27.8,26.2,25.1,21.6,20.0,81,77,74,29.99,29.88,24,14,24,0.17
2013-3-2,30.7,28.2,25.5,22.2,18.9,14.0,80,68,58,30.00,29.96,21,11,21,0.00
2013-3-3,34.3,29.9,20.7,18.2,14.7,9.3,68,53,38,29.99,29.91,16,7,16,0.00
2013-3-4,33.8,32.8,24.4,25.0,23.6,15.4,75,69,65,29.94,29.81,25,12,25,0.00
2013-3-5,32.5,30.6,28.4,30.6,29.0,26.6,95,94,79,29.83,29.60,14,0,14,0.11
2013-3-6,31.6,30.4,29.5,28.6,25.3,24.4,95,81,78,30.13,29.74,14,8,14,0.12
2013-3-7,37.8,33.7,28.4,25.9,23.3,20.6,83,66,60,30.23,30.12,6,3,6,0.12
2013-3-8,41.4,36.1,25.5,29.3,26.5,19.3,85,68,59,30.31,30.15,11,5,11,0.00
2013-3-9,42.6,39.6,30.4,35.5,33.2,24.7,85,78,71,30.15,29.69,18,9,18,0.01
2013-3-10,56.1,51.0,39.0,49.2,45.4,34.0,94,81,75,29.69,29.46,30,12,30,0.30
2013-3-11,48.6,34.7,32.4,46.9,32.3,28.9,94,91,87,29.67,29.49,27,17,27,0.35
2013-3-12,40.8,35.4,31.1,31.1,27.3,16.9,87,73,61,29.87,29.67,28,17,28,0.38
2013-3-13,32.7,30.3,27.9,16.9,12.5,9.5,62,47,43,30.17,29.87,18,9,19,0.38
2013-3-14,33.6,32.4,24.1,29.6,28.4,16.4,91,85,72,30.16,29.95,10,6,10,0.01
2013-3-15,46.6,43.0,31.5,39.9,38.4,29.2,93,84,76,29.95,29.54,17,6,17,0.01
2013-3-16,37.2,34.9,31.5,35.4,31.4,24.2,97,87,70,29.93,29.49,24,13,24,0.01
2013-3-17,36.7,33.9,30.7,24.3,22.5,20.4,76,63,56,30.01,29.87,33,14,33,0.00
2013-3-18,36.5,30.7,24.4,33.6,23.7,12.2,90,75,59,29.69,29.50,28,19,28,0.02
2013-3-19,37.2,27.7,19.6,17.9,13.5,8.5,66,55,39,29.94,29.68,37,20,37,0.00
2013-3-20,29.3,23.8,17.8,13.8,7.2,1.0,59,49,35,29.94,29.86,27,14,27,0.00
2013-3-21,34.3,31.0,19.2,13.1,11.1,7.8,66,43,33,29.88,29.83,15,4,15,0.00
2013-3-22,43.2,33.2,20.1,20.0,17.1,10.6,69,53,34,29.90,29.83,14,1,14,0.00
2013-3-23,43.2,35.7,27.1,24.4,20.9,16.8,69,55,43,29.93,29.82,18,1,18,0.00
2013-3-24,35.8,32.4,29.8,29.6,25.5,20.3,97,76,54,29.82,29.43,0,0,0,0.00
2013-3-25,34.7,33.5,29.8,29.1,27.7,24.4,97,79,70,29.89,29.47,24,13,24,0.00
2013-3-26,41.2,37.9,32.4,28.5,26.8,24.4,72,64,57,30.08,29.89,11,0,11,0.00
2013-3-27,43.0,39.8,32.4,25.0,21.9,17.7,74,49,44,30.15,30.08,0,0,0,0.00
2013-3-28,52.0,42.7,34.3,31.4,28.1,17.7,76,58,35,30.15,30.10,0,0,0,0.00
2013-3-29,57.7,43.5,32.5,34.2,28.4,20.2,87,58,30,30.15,30.05,0,0,0,0.00
2013-3-30,59.4,46.1,32.0,39.5,30.2,17.9,72,54,43,30.07,29.76,12,0,12,0.00
2013-3-31,63.0,50.9,38.8,43.4,35.1,24.4,95,57,34,29.76,27.39,21,0,21,0.00
2013-4-1,41.7,36.5,30.0,25.2,14.9,7.3,61,43,26,29.99,29.73,1,0,1,0.00
2013-4-2,45.9,42.3,31.5,15.0,7.5,5.4,50,24,20,30.12,30.01,0,0,0,0.00
2013-4-3,47.7,40.8,29.7,15.0,12.2,7.3,53,32,21,30.19,30.12,10,1,10,0.00
2013-4-4,60.4,42.6,25.0,25.6,17.7,11.6,63,40,20,30.16,29.83,0,0,0,0.00
2013-4-5,50.0,43.3,34.7,30.2,18.5,12.4,77,39,24,30.02,29.83,22,6,22,0.00
2013-4-6,72.0,63.7,33.6,44.6,38.2,23.7,71,40,29,30.02,29.52,30,8,30,0.14
2013-4-7,65.7,57.3,46.2,47.9,42.8,25.7,94,61,40,30.05,29.52,20,0,20,0.14
2013-4-8,73.8,60.2,44.8,56.6,51.8,39.3,90,75,54,29.95,29.81,1,0,1,0.25
2013-4-9,79.2,60.6,45.1,64.2,54.5,42.0,99,82,53,30.02,29.80,24,6,24,0.13
2013-4-10,58.6,44.5,32.0,54.0,43.7,31.8,99,97,84,30.01,29.58,40,14,40,0.89
2013-4-11,53.1,49.5,43.5,52.5,49.2,41.6,99,99,97,29.89,29.68,26,11,26,1.13
2013-4-12,42.4,41.0,39.0,40.6,37.6,35.4,93,88,85,29.97,29.86,0,0,0,1.13
2013-4-13,75.7,42.5,0.0,37.6,34.1,29.2,94,71,58,30.00,29.86,24,2,24,2.26
2013-4-14,73.4,61.9,41.7,55.4,48.8,37.2,87,63,44,30.01,29.73,18,4,18,2.26
2013-4-15,60.4,51.7,47.1,58.2,50.5,2.0,99,97,15,30.02,29.76,0,0,0,3.06
2013-4-16,54.9,48.1,43.2,46.9,43.6,39.9,99,85,61,30.26,29.95,1,0,1,0.54
2013-4-17,57.2,49.8,45.5,56.2,49.0,39.9,99,97,80,30.26,29.87,24,2,24,0.84
2013-4-18,61.3,58.4,35.2,60.8,57.9,33.4,99,98,93,30.25,29.49,23,3,23,1.05
2013-4-19,43.9,37.1,33.4,41.7,32.5,30.4,93,84,78,30.27,27.21,0,0,0,1.13
2013-4-20,46.9,40.4,34.5,32.6,26.9,22.8,92,59,48,30.75,30.26,0,0,0,1.13
2013-4-21,54.7,47.0,31.8,36.9,33.3,23.4,78,60,46,30.84,30.67,11,1,11,1.13
2013-4-22,67.8,51.9,38.5,42.5,39.1,34.0,85,64,37,30.67,30.40,7,0,7,0.00
2013-4-23,52.5,50.3,41.7,48.0,45.0,41.5,99,82,73,30.40,29.92,1,0,1,0.38
2013-4-24,51.6,44.7,36.9,41.5,35.2,33.3,99,71,53,30.19,29.92,16,2,16,0.47
2013-4-25,52.9,46.1,38.1,36.5,32.9,28.0,89,63,41,30.36,30.15,0,0,0,0.47
2013-4-26,66.9,56.9,42.3,48.9,45.0,28.6,81,66,49,30.39,30.31,0,0,0,0.47
2013-4-27,69.6,62.9,50.4,52.1,46.6,39.1,92,57,36,30.34,30.07,18,1,18,0.01
2013-4-28,63.0,58.5,53.4,57.4,55.7,51.7,99,91,81,30.67,29.87,0,0,0,0.12
2013-4-29,73.4,64.2,46.4,58.8,55.0,45.4,99,74,54,29.99,29.85,0,0,0,0.12
2013-4-30,84.0,74.6,56.8,64.0,60.7,53.8,90,64,47,30.01,29.88,1,0,1,0.12
2013-5-1,84.2,77.2,59.0,63.1,57.6,53.8,97,53,40,30.18,30.01,0,0,0,0.12
2013-5-2,67.8,55.8,44.2,56.1,49.3,42.1,97,80,65,30.20,30.13,1,0,1,0.12
2013-5-3,64.0,53.4,41.5,61.7,52.5,41.1,99,97,92,30.17,29.94,1,0,1,0.26
2013-5-4,73.0,63.1,54.3,57.7,54.8,51.5,99,76,53,30.07,29.96,14,1,14,0.05
2013-5-5,75.0,65.8,51.8,54.4,50.3,41.5,97,60,33,30.06,29.97,20,2,20,0.05
2013-5-6,73.2,63.2,52.7,50.4,46.9,41.6,85,58,39,30.05,29.97,12,2,12,0.00
2013-5-7,77.9,69.1,49.1,55.3,48.9,39.5,76,50,26,30.07,29.99,1,0,1,0.00
2013-5-8,81.9,73.4,52.3,59.7,53.1,45.4,84,51,32,30.07,29.99,44,0,44,0.00
2013-5-9,74.8,65.7,57.9,65.5,60.0,49.8,99,83,54,30.74,29.88,1,0,1,0.21
2013-5-10,61.5,51.1,44.4,60.8,50.4,43.3,99,97,94,30.01,29.84,19,11,19,0.38
2013-5-11,63.5,54.7,41.7,56.6,46.1,31.4,99,75,43,30.01,29.77,21,2,21,0.78
2013-5-12,56.7,47.4,37.6,34.4,30.2,19.9,87,54,26,30.76,29.93,8,0,8,0.00
2013-5-13,66.2,63.3,45.0,38.4,26.5,22.6,53,25,19,29.99,29.93,0,0,0,0.00
2013-5-14,90.7,80.0,52.5,61.5,54.8,38.9,73,44,29,29.93,29.59,1,0,1,0.00
2013-5-15,83.8,80.5,70.2,61.1,52.8,49.2,73,39,33,29.71,29.62,0,0,0,0.00
2013-5-16,83.1,76.5,66.7,55.0,46.7,43.7,66,35,28,29.85,29.71,0,0,0,0.00
2013-5-17,83.7,71.9,64.0,67.1,63.8,46.3,99,79,43,29.91,29.84,3,0,3,0.24
2013-5-18,81.0,74.1,62.1,70.4,67.1,61.5,99,80,65,29.94,29.84,11,1,11,0.24
2013-5-19,87.6,84.8,65.1,71.3,67.0,62.9,98,56,45,29.84,29.68,16,1,16,0.24
2013-5-20,88.5,78.6,71.4,70.5,67.4,59.7,94,71,38,29.74,29.64,0,0,0,0.24
2013-5-21,79.9,77.0,66.4,71.5,70.4,64.9,95,80,72,29.71,29.58,0,0,0,1.42
2013-5-22,73.9,67.9,65.8,67.9,63.7,59.3,99,87,65,29.67,29.56,0,0,0,1.46
2013-5-23,62.2,48.9,43.2,59.3,44.3,38.0,99,84,77,30.12,29.67,0,0,0,1.46
2013-5-24,59.5,53.2,40.5,44.6,39.7,34.7,96,62,42,30.29,30.13,0,0,0,1.46
2013-5-25,57.9,54.9,43.2,48.6,45.0,36.5,93,70,60,30.27,30.16,0,0,0,0.00
2013-5-26,65.3,59.3,45.9,57.3,54.5,43.4,99,85,57,30.17,30.01,0,0,0,0.20
2013-5-27,66.4,62.3,56.1,66.1,61.7,55.9,99,98,93,30.03,29.72,15,7,15,1.35
2013-5-28,79.7,72.8,64.2,73.8,70.1,63.4,99,91,80,29.93,29.66,24,1,24,1.37
2013-5-29,79.5,72.2,64.9,71.8,68.1,64.7,99,88,76,29.94,29.81,0,0,0,0.31
2013-5-30,84.9,78.2,68.7,75.9,72.0,67.0,94,82,68,29.94,29.83,1,0,1,0.39
2013-5-31,75.4,68.4,65.1,71.1,67.6,64.9,99,97,86,29.92,29.72,0,0,0,0.90
2013-6-1,77.4,71.3,62.2,72.0,67.5,61.3,99,88,79,29.81,29.69,1,0,1,0.33
2013-6-2,64.4,56.4,51.3,62.0,54.6,48.1,98,94,89,30.00,29.73,0,0,0,0.01
2013-6-3,62.1,55.9,49.1,50.2,47.5,43.5,98,74,57,30.10,30.03,0,0,0,0.01
2013-6-4,71.4,65.2,50.7,55.0,50.9,45.3,93,62,45,30.11,30.05,5,0,5,0.00
2013-6-5,75.2,68.2,57.6,58.7,54.5,52.6,84,63,47,30.05,29.88,0,0,0,0.00
2013-6-6,67.6,61.9,55.6,57.6,51.9,46.3,87,70,59,29.89,29.83,15,0,15,0.02
2013-6-7,70.5,65.8,55.2,60.6,54.1,44.0,90,67,51,29.92,29.85,0,0,0,0.00
2013-6-8,78.6,72.4,53.2,59.1,54.3,45.2,74,54,37,29.98,29.90,8,1,8,0.00
2013-6-9,83.3,77.9,60.6,61.6,57.6,52.5,85,51,42,29.99,29.80,0,0,1,0.00
2013-6-10,77.4,72.8,64.8,70.1,67.9,64.3,99,85,69,29.85,29.73,0,0,0,0.01
2013-6-11,84.2,77.0,62.1,70.7,67.7,61.3,99,74,60,29.92,29.82,0,0,0,0.00
2013-6-12,90.1,79.2,69.6,75.4,69.7,67.3,99,77,49,29.86,29.58,0,0,0,0.00
2013-6-13,73.2,67.5,64.0,72.4,59.1,56.5,97,75,64,30.00,29.61,0,0,0,0.78
2013-6-14,78.3,71.0,56.7,66.1,60.9,55.6,97,72,54,30.10,30.00,0,0,0,0.00
2013-6-15,81.3,73.9,64.0,71.3,67.9,60.4,95,82,66,30.03,29.89,0,0,0,0.00
2013-6-16,83.5,78.8,67.8,72.9,70.5,66.1,94,76,65,29.94,29.87,0,0,0,0.00
2013-6-17,86.7,84.2,69.4,67.7,60.9,56.7,94,46,37,29.92,29.86,0,0,0,0.00
2013-6-18,73.4,66.7,59.7,65.0,59.3,54.4,96,77,73,30.02,29.88,0,0,0,0.05
2013-6-19,77.5,69.8,57.9,58.6,56.5,54.3,89,63,51,30.09,30.02,0,0,0,0.05
2013-6-20,90.1,74.6,0.0,71.2,63.1,54.5,84,61,43,30.85,29.33,0,0,0,0.00
2013-6-21,89.4,75.9,0.0,71.6,69.2,64.0,95,79,52,30.11,0.00,21,0,21,0.04
2013-6-22,78.1,72.4,66.9,77.7,70.6,66.7,99,94,84,29.92,29.81,0,0,0,0.41
2013-6-23,86.4,75.1,65.1,77.4,70.7,64.9,99,87,66,29.88,29.78,1,0,1,0.00
2013-6-24,87.3,72.8,67.3,79.6,70.4,64.5,99,93,63,29.93,29.70,0,0,0,0.28
2013-6-25,89.1,76.6,67.5,79.0,72.3,66.2,99,87,66,29.79,29.63,0,0,0,0.00
2013-6-26,82.2,73.5,67.1,78.0,71.8,53.2,99,95,83,29.94,29.05,57,0,57,0.58
2013-6-27,88.2,78.2,67.6,78.2,71.3,64.6,99,81,56,29.96,29.83,0,0,0,0.00
2013-6-28,82.2,63.1,0.0,68.1,65.3,58.7,99,68,50,29.92,28.90,0,0,0,0.17
2013-6-29,66.7,63.7,0.0,65.6,63.7,60.5,99,96,94,29.93,29.87,0,0,0,0.09
2013-6-30,73.6,67.3,62.4,65.8,61.1,53.9,99,81,60,30.69,29.92,16,0,16,0.00
2013-7-1,74.3,67.5,59.7,63.1,58.8,54.4,93,74,58,30.22,30.12,11,0,11,0.00
2013-7-2,67.5,63.3,60.8,63.6,60.0,56.2,98,89,72,30.24,30.18,1,0,1,0.00
2013-7-3,74.8,66.2,60.6,71.0,63.9,60.2,99,93,81,30.27,30.18,0,0,0,0.00
2013-7-4,81.1,71.2,59.4,69.4,64.6,58.9,99,81,60,30.30,30.25,0,0,0,0.00
2013-7-5,84.6,73.0,60.1,72.4,67.1,59.8,99,83,64,30.30,29.61,0,0,0,0.00
2013-7-6,80.6,73.9,67.5,74.0,70.0,15.8,99,89,12,29.96,29.83,0,0,0,0.00
2013-7-7,87.3,76.4,66.4,77.1,71.9,16.2,99,87,65,29.93,29.85,0,0,0,0.01
2013-7-8,87.4,77.4,72.0,78.0,73.7,71.1,99,89,64,29.94,29.85,1,0,1,0.04
2013-7-9,86.2,79.1,73.2,81.2,76.8,72.4,99,93,79,29.91,29.78,1,0,1,0.00
2013-7-10,85.8,76.4,64.4,79.4,72.3,61.3,99,87,62,29.89,29.73,0,0,0,0.00
2013-7-11,78.6,69.8,60.8,65.7,59.4,52.8,98,72,43,29.97,29.89,0,0,0,0.00
2013-7-12,82.6,68.1,57.2,66.8,59.9,54.8,98,77,47,30.03,29.96,9,0,9,0.00
2013-7-13,78.4,72.7,68.7,68.7,67.1,66.4,97,83,67,29.96,29.87,0,0,0,0.00
2013-7-14,90.5,78.0,64.4,74.7,70.3,64.1,99,79,52,30.02,29.95,0,0,0,0.00
2013-7-15,93.0,81.4,70.7,79.7,74.8,70.1,99,82,60,30.09,30.01,0,0,0,0.00
2013-7-16,93.6,82.5,71.6,78.6,74.9,70.7,99,80,55,30.15,30.08,9,1,9,0.00
2013-7-17,94.3,83.2,70.9,78.9,74.8,70.3,99,78,53,30.15,30.01,0,0,0,0.00
2013-7-18,95.0,83.8,72.0,81.3,76.3,71.1,99,80,54,30.02,29.82,0,0,0,0.00
2013-7-19,96.3,84.8,74.1,78.5,75.8,72.0,99,77,48,29.82,29.63,0,0,0,0.00
2013-7-20,87.1,79.5,70.7,77.6,69.5,61.2,99,74,46,29.75,29.63,0,0,0,0.08
2013-7-21,88.7,76.6,65.7,75.5,70.9,64.9,99,84,60,29.78,29.68,0,0,0,0.00
2013-7-22,88.0,77.5,69.1,73.7,71.2,68.8,99,83,56,29.69,29.59,4,0,4,0.05
2013-7-23,81.7,71.4,59.7,72.3,66.1,56.1,99,84,64,29.79,29.53,0,0,0,0.02
2013-7-24,72.7,63.4,53.8,56.9,52.2,48.0,94,69,45,29.87,29.76,14,0,14,0.00
2013-7-25,80.1,67.1,53.1,60.9,56.1,52.5,98,71,41,29.93,29.86,0,0,0,0.00
2013-7-26,76.8,67.4,60.8,67.9,63.4,58.5,99,88,66,29.89,29.71,1,0,1,0.11
2013-7-27,69.8,62.4,52.9,66.5,56.5,9.9,99,83,15,29.76,29.69,0,0,0,0.00
2013-7-28,71.1,60.5,48.6,56.6,52.2,48.3,99,76,48,29.86,29.72,0,0,0,0.00
2013-7-29,79.2,65.1,48.0,60.9,56.0,47.8,99,75,51,29.99,29.85,0,0,0,0.00
2013-7-30,67.3,63.6,56.3,66.8,62.7,56.0,99,97,86,30.00,29.88,0,0,0,0.34
2013-7-31,74.3,59.7,0.0,71.8,67.8,51.9,99,84,87,29.89,29.22,0,0,0,0.08
2013-8-1,80.4,70.8,61.0,68.7,60.9,53.8,99,74,43,29.83,29.78,0,0,0,0.00
2013-8-2,86.7,72.0,61.9,73.4,67.2,59.2,99,86,61,29.79,29.68,0,0,0,0.52
2013-8-3,79.0,71.0,63.1,70.0,63.3,53.3,99,78,49,29.93,29.76,0,0,0,0.08
2013-8-4,78.6,67.7,56.8,64.9,59.4,56.0,99,77,48,30.00,29.93,0,0,0,0.00
2013-8-5,77.9,66.6,57.9,68.3,63.5,57.6,99,90,66,29.94,29.71,0,0,0,0.18
2013-8-6,81.9,72.2,64.0,74.8,69.8,63.2,99,93,77,29.75,29.68,0,0,0,0.00
2013-8-7,84.4,76.5,69.1,80.0,74.2,68.8,99,93,83,29.75,29.10,0,0,0,0.00
2013-8-8,78.6,71.2,64.8,69.5,65.6,57.3,99,83,64,29.82,29.75,0,0,0,0.00
2013-8-9,83.1,71.3,60.4,69.3,64.3,57.3,99,80,55,29.86,29.79,0,0,0,0.00
2013-8-10,82.2,72.7,63.9,71.0,65.1,58.3,99,79,52,29.94,29.86,0,0,0,0.00
2013-8-11,82.6,70.7,59.2,67.8,62.2,57.2,96,76,51,29.96,29.87,0,0,0,0.00
2013-8-12,86.7,73.7,62.6,74.4,68.4,61.8,99,85,56,29.89,29.69,0,0,0,0.00
2013-8-13,71.4,65.4,57.2,68.3,56.6,44.8,99,76,46,29.96,29.73,0,0,0,0.00
2013-8-14,71.2,61.3,52.0,58.7,54.0,50.3,97,78,52,30.03,29.96,0,0,0,0.00
2013-8-15,78.4,64.9,50.9,60.9,55.5,50.6,99,74,43,30.01,29.92,0,0,0,0.00
2013-8-16,78.8,68.4,59.5,60.9,56.7,52.3,98,69,42,30.01,29.94,0,0,0,0.00
2013-8-17,80.4,67.9,55.2,63.8,58.2,53.5,99,74,45,30.05,29.98,0,0,0,0.00
2013-8-18,84.2,70.2,56.3,66.2,61.3,56.0,99,76,44,30.02,29.91,0,0,0,0.00
2013-8-19,86.9,74.0,59.4,67.8,64.2,59.1,99,74,47,29.94,29.85,0,0,0,0.00
2013-8-20,88.5,75.9,63.3,70.6,66.7,62.5,99,76,47,29.96,29.86,0,0,0,0.00
2013-8-21,90.5,77.2,64.9,73.6,68.3,64.5,99,77,46,30.03,29.81,0,0,0,0.00
2013-8-22,74.7,70.4,66.4,72.5,69.5,65.9,99,97,90,29.94,29.82,0,0,0,0.00
2013-8-23,81.7,70.5,61.9,69.9,63.3,58.0,99,80,45,29.98,29.90,0,0,0,0.00
2013-8-24,84.2,71.5,59.7,66.8,62.1,57.8,98,75,49,30.07,29.97,0,0,0,0.00
2013-8-25,88.2,73.8,60.6,71.8,64.8,57.9,94,76,49,30.09,29.98,0,0,0,0.00
2013-8-26,90.1,76.3,63.0,76.6,70.6,62.1,99,84,61,30.01,29.85,0,0,0,0.00
2013-8-27,91.6,80.5,70.7,79.4,74.3,70.1,99,83,58,29.85,29.71,0,0,0,0.00
2013-8-28,87.1,76.5,0.0,78.5,72.1,67.8,98,82,71,29.85,29.21,14,3,14,0.00
2013-8-29,88.3,77.3,69.8,74.6,70.3,15.8,98,81,52,29.89,29.79,11,2,11,0.00
2013-8-30,95.2,78.6,67.6,79.8,71.8,15.5,99,82,48,29.80,29.61,0,0,0,0.00
2013-8-31,83.7,73.5,66.9,76.4,71.2,66.7,99,93,74,29.67,29.56,0,0,0,0.00
2013-9-1,83.5,73.7,67.3,74.8,70.9,67.0,99,92,68,29.63,29.57,0,0,0,0.00
2013-9-2,80.1,70.5,60.3,71.1,65.6,16.8,99,86,53,29.80,29.57,0,0,0,0.00
2013-9-3,75.6,65.3,56.8,62.2,58.6,56.1,99,81,55,29.90,29.79,0,0,0,0.00
2013-9-4,81.9,68.1,53.1,65.6,59.1,52.5,99,76,46,29.96,29.86,0,0,0,0.00
2013-9-5,79.9,67.1,59.0,65.7,60.1,51.3,99,80,55,30.03,29.93,0,0,0,0.00
2013-9-6,87.4,71.4,57.0,67.9,60.6,52.3,95,71,50,30.03,29.84,0,0,0,0.00
2013-9-7,89.6,74.8,62.8,70.0,65.8,61.9,99,77,42,29.85,29.72,1,0,1,0.00
2013-9-8,87.4,76.3,69.8,72.4,69.8,67.6,98,82,56,29.81,29.73,17,5,17,0.00
2013-9-9,96.6,80.2,66.4,77.1,71.7,66.1,99,78,46,30.53,29.66,17,5,17,0.00
2013-9-10,98.2,82.7,69.3,73.2,69.2,64.0,99,69,35,29.86,29.74,0,0,0,0.00
2013-9-11,95.7,80.4,70.0,72.3,70.2,67.5,98,75,41,29.89,29.80,0,0,0,0.00
2013-9-12,84.2,68.9,0.0,72.1,64.6,49.8,99,78,36,29.87,29.25,23,2,23,0.00
2013-9-13,67.3,58.9,50.7,60.2,51.7,45.2,99,79,49,29.96,29.87,22,6,22,0.00
2013-9-14,72.1,58.2,44.2,51.9,45.5,37.6,99,68,32,30.00,29.86,11,2,11,0.00
2013-9-15,73.6,60.0,50.5,60.4,53.9,46.2,99,82,49,29.93,29.78,17,5,17,0.00
2013-9-16,66.7,58.6,50.5,58.2,53.2,48.8,99,84,54,30.13,29.93,18,6,18,0.00
2013-9-17,73.6,60.2,47.7,56.7,52.9,47.4,99,79,52,30.12,29.92,15,5,15,0.00
2013-9-18,85.5,70.3,58.1,69.8,63.6,55.8,97,81,56,29.92,29.76,17,6,17,0.00
2013-9-19,91.9,76.3,66.4,76.1,71.2,66.1,99,86,52,29.81,29.65,19,10,19,0.00
2013-9-20,76.3,75.6,74.5,73.4,73.2,73.0,95,92,90,29.67,29.65,16,9,16,0.00
2013-9-21,69.1,53.1,52.2,68.8,50.7,47.8,99,91,85,30.11,29.92,6,2,6,0.00
2013-9-22,69.3,57.6,48.4,52.8,48.6,45.5,95,74,43,30.04,29.94,14,4,14,0.00
2013-9-23,72.0,62.7,53.8,49.7,48.0,41.9,83,61,35,29.94,29.91,10,4,10,0.00
2013-9-24,74.1,60.0,46.6,55.2,50.1,46.3,99,73,41,29.96,29.81,16,6,16,0.00
2013-9-25,55.2,54.2,52.3,51.4,50.7,49.9,93,88,85,29.82,29.80,7,3,7,0.00
2013-9-26,77.9,62.6,48.9,58.0,55.0,48.6,99,79,36,29.99,29.87,6,2,6,0.00
2013-9-27,82.9,66.8,52.5,58.8,52.1,45.3,98,64,29,30.07,29.96,17,4,17,0.00
2013-9-28,85.8,69.3,52.7,61.6,54.5,47.6,95,62,37,30.00,29.84,27,8,27,0.00
2013-9-29,72.0,61.8,51.4,64.7,55.1,48.6,99,81,50,29.95,29.85,21,5,21,0.00
2013-9-30,76.5,61.0,46.6,58.4,53.1,46.3,99,79,41,29.91,29.79,14,4,14,0.00
2013-10-1,80.2,68.6,57.4,67.6,63.9,56.9,99,86,62,29.90,29.82,21,8,21,0.00
2013-10-2,81.5,70.4,63.5,70.9,66.9,62.7,99,90,63,29.99,29.89,16,4,16,0.00
2013-10-3,82.4,68.9,63.5,73.5,67.4,62.5,99,95,65,29.90,29.76,36,4,36,0.00
2013-10-4,87.1,69.3,0.0,74.5,67.7,62.1,99,81,52,29.89,29.19,0,0,0,0.00
2013-10-5,79.7,71.5,66.9,75.1,69.7,66.5,99,94,80,29.88,29.69,0,0,0,0.00
2013-10-6,66.9,56.0,47.7,66.7,50.1,41.8,99,82,51,29.72,29.61,0,0,0,0.00
2013-10-7,67.3,54.1,43.0,52.9,46.9,42.5,99,80,47,30.16,29.69,0,0,0,0.00
2013-10-8,76.8,60.1,44.8,55.5,49.3,44.0,99,72,35,30.27,30.16,0,0,0,0.00
2013-10-9,73.6,59.7,45.9,53.0,46.6,39.2,99,67,30,30.31,30.17,0,0,0,0.00
2013-10-10,76.8,62.0,46.6,58.9,51.9,45.7,99,73,46,30.24,30.12,0,0,0,0.00
2013-10-25,51.1,39.3,26.1,32.1,29.3,22.7,87,70,45,30.48,30.11,0,0,0,0.00
2013-10-26,56.8,44.6,30.0,38.4,33.2,26.1,85,65,48,30.15,29.94,0,0,0,0.00
2013-10-27,56.3,40.7,28.2,36.1,29.9,25.4,96,69,37,30.25,30.05,0,0,0,0.00
2013-10-28,60.3,47.4,37.8,44.8,39.9,32.5,99,79,35,30.38,30.27,0,0,0,0.00
2013-10-29,57.0,48.4,37.6,48.3,44.8,37.3,99,89,60,30.38,30.16,0,0,0,0.00
2013-10-30,63.7,57.2,48.4,62.8,56.7,48.1,99,98,97,30.17,29.86,0,0,0,0.00
2013-10-31,62.4,53.1,47.1,61.8,52.7,46.7,99,99,97,29.82,29.34,0,0,0,0.01
2013-11-1,52.5,47.3,44.1,48.6,45.6,43.5,99,94,79,29.82,29.51,0,0,0,0.00
2013-11-2,48.9,43.0,37.6,44.5,40.9,37.3,99,93,75,30.20,29.82,0,0,0,0.00
2013-11-3,55.0,42.7,34.9,46.9,38.7,34.4,99,87,60,30.36,30.19,0,0,0,0.00
2013-11-4,58.1,48.8,40.3,46.6,43.1,39.0,96,82,61,30.33,30.20,0,0,0,0.41
2013-11-5,56.3,52.5,50.0,54.9,49.1,45.9,99,88,77,30.35,30.07,0,0,0,0.01
2013-11-6,56.5,46.8,0.0,56.2,46.6,28.0,99,92,70,30.23,29.19,115,0,115,0.47
2013-11-7,47.3,36.2,28.4,38.2,31.4,26.7,97,83,66,30.33,30.22,0,0,0,0.00
2013-11-8,50.0,39.0,26.4,39.0,33.0,24.6,99,80,57,30.40,30.08,0,0,0,0.00
2013-11-9,61.9,49.5,40.8,45.3,39.4,34.0,88,69,45,30.20,29.98,0,0,0,0.00
2013-11-10,48.9,41.0,34.2,37.7,32.0,28.8,87,71,51,30.41,30.20,0,0,0,0.00
2013-11-11,48.6,38.1,25.9,41.8,33.6,17.6,99,84,68,30.51,30.16,0,0,0,0.06
2013-11-12,32.5,26.2,22.1,24.0,17.9,14.7,80,71,49,30.73,30.51,0,0,0,0.00
2013-11-13,37.9,27.6,16.2,25.6,19.6,10.9,86,72,55,30.66,30.28,0,0,0,0.00
2013-11-14,50.7,37.7,26.8,30.4,25.6,18.0,78,62,42,30.28,30.05,0,0,0,0.00
2013-11-15,48.0,41.3,32.9,43.5,34.3,26.4,89,76,61,30.09,30.02,0,0,0,0.00
2013-11-16,59.5,53.7,38.5,59.3,51.9,36.0,99,94,83,30.04,29.70,0,0,0,0.11
2013-11-17,68.5,56.8,42.3,65.8,54.2,37.6,99,91,77,29.85,29.31,0,0,51,0.60
2013-11-18,45.5,39.2,32.4,39.3,31.9,24.9,95,76,52,30.31,29.85,0,0,0,0.00
2013-11-19,44.4,33.9,25.5,31.8,26.9,20.2,87,76,56,30.42,30.31,0,0,0,0.00
2013-11-20,44.6,36.8,28.0,39.5,31.7,23.7,96,82,65,30.35,30.15,0,0,0,0.06
2013-11-21,49.5,45.6,40.8,47.2,43.8,39.1,99,93,85,30.24,30.17,0,0,0,0.20
2013-11-22,46.0,35.8,27.3,45.2,32.1,23.7,98,86,71,30.26,29.92,0,0,0,0.02
2013-11-23,27.3,22.4,15.1,23.7,10.8,0.3,88,62,39,30.22,29.97,0,0,0,0.00
2013-11-24,26.8,18.0,11.1,8.4,4.5,-0.6,67,55,37,30.26,29.96,0,0,0,0.00
2013-11-25,32.4,27.1,16.5,26.7,18.7,7.0,90,71,54,29.96,29.65,0,0,0,0.00
2013-11-26,36.0,28.4,18.3,29.9,21.2,1.8,86,75,47,29.67,29.54,0,0,0,0.00
2013-11-27,27.3,19.8,12.9,12.3,5.6,0.8,71,54,42,29.82,29.66,0,0,0,0.00
2013-11-28,37.0,27.5,20.1,16.6,13.5,9.5,73,56,41,30.03,29.73,0,0,0,0.00
2013-11-29,37.6,27.2,15.6,21.6,16.0,6.2,74,63,47,30.16,29.96,0,0,0,0.00
2013-11-30,50.7,36.3,27.7,31.3,25.4,19.0,79,66,45,30.39,29.62,0,0,0,0.00
2013-12-1,46.4,34.4,27.1,35.5,29.5,22.4,95,82,63,29.64,29.52,0,0,0,0.00
2013-12-2,42.6,36.9,32.7,37.2,32.6,29.9,98,85,64,29.52,27.87,0,0,0,0.02
2013-12-3,51.6,44.9,36.9,50.0,44.2,35.3,99,97,94,29.31,29.24,0,0,0,0.00
2013-12-4,56.3,49.5,41.7,56.0,48.8,38.0,99,97,85,29.31,29.08,0,0,0,0.01
2013-12-5,41.7,27.4,21.7,38.1,19.4,11.3,90,72,61,29.79,29.28,0,0,0,0.00
2013-12-6,21.6,18.9,13.8,11.7,7.9,3.3,68,62,53,30.05,29.75,0,0,0,0.00
2013-12-7,20.7,14.2,8.1,4.7,0.5,-2.3,66,55,37,30.21,30.06,0,0,0,0.00
2013-12-8,26.2,21.6,12.4,23.2,14.3,3.4,88,73,61,30.11,29.50,0,0,0,0.00
2013-12-9,26.1,18.6,5.2,23.0,10.3,-7.4,88,70,48,29.79,29.50,0,0,0,0.00
2013-12-10,24.4,13.8,-2.6,11.0,1.9,-14.2,67,58,53,29.84,29.61,0,0,0,0.00
2013-12-11,37.8,12.7,-0.8,33.7,3.0,-14.1,85,65,46,29.97,29.79,0,0,0,0.00
2013-12-12,25.2,10.2,-5.4,11.5,-1.4,-17.8,69,59,51,29.95,29.61,0,0,0,0.00
2013-12-13,15.3,12.7,11.1,7.9,5.4,3.9,73,72,69,29.62,29.55,0,0,0,0.00
2013-12-14,27.3,24.0,6.8,22.3,18.8,-8.6,84,80,48,30.49,29.92,0,0,0,0.00
2013-12-15,21.2,14.2,9.3,16.9,6.5,1.9,83,71,63,30.76,29.92,0,0,0,0.00
2013-12-16,23.7,17.5,11.7,16.4,11.1,5.4,87,76,63,30.09,29.96,0,0,0,0.00
2013-12-17,30.9,23.4,17.6,26.9,18.3,13.1,89,81,68,30.07,29.93,0,0,0,0.00
2013-12-18,36.3,22.5,6.8,30.8,14.4,-1.1,80,71,59,30.14,29.82,0,0,0,0.00
2013-12-19,41.5,37.6,34.5,38.4,34.4,30.7,99,88,80,29.90,29.73,0,0,0,0.02
2013-12-20,40.3,37.0,26.8,40.0,36.6,21.5,99,99,80,30.11,29.70,0,0,0,0.22
2013-12-21,34.2,32.6,30.4,33.7,32.2,30.1,99,99,98,29.99,29.65,0,0,0,0.27
2013-12-22,35.8,31.9,27.5,35.0,30.6,23.1,99,95,82,30.27,29.68,0,0,0,0.05
2013-12-23,27.5,14.5,0.0,23.3,9.8,-9.3,86,59,59,30.60,30.27,0,0,0,0.00
2013-12-24,19.0,9.7,0.3,8.9,-0.6,-11.1,72,62,55,30.71,30.41,0,0,0,0.00
2013-12-25,28.4,24.8,19.0,25.6,18.6,8.7,89,77,63,30.50,30.27,0,0,0,0.00
2013-12-26,34.9,27.4,14.5,27.5,20.5,7.7,85,75,66,30.45,30.26,0,0,0,0.00
2013-12-27,44.2,33.9,23.0,33.6,28.2,19.2,91,80,65,30.45,30.26,0,0,0,0.00
2013-12-28,50.9,38.8,30.6,38.4,32.4,27.1,88,78,61,30.27,30.01,0,0,0,0.00
2013-12-29,35.8,29.2,16.9,30.8,24.5,8.7,93,82,71,30.30,29.93,0,0,0,0.00
2013-12-30,16.7,12.6,5.9,8.7,3.4,-3.5,75,66,61,30.46,30.30,0,0,0,0.00
2013-12-31,17.2,12.0,0.7,9.9,4.4,-7.9,77,71,64,30.52,30.30,0,0,0,0.00
2014-1-1,20.5,18.8,15.1,14.3,12.6,9.9,80,76,74,30.40,29.88,0,0,0,0.00
2014-1-2,19.0,14.1,1.8,13.2,7.2,-8.1,81,73,58,30.16,29.83,0,0,0,0.00